Télécharger nos applis :
Date Heure Temperature Direction Vent Rafales Pluie Pression Humidité Condition
VEN.
24
02:00 7°C 5 5 --- 1018 hPa 89% Ensoleillé / Ciel clair
05:00 6°C 5 5 --- 1018 hPa 91% Ensoleillé / Ciel clair
08:00 9°C 5 5 --- 1019 hPa 91% Ciel voilé
11:00 13°C 5 5 --- 1019 hPa 78% Ensoleillé / Ciel clair
14:00 16°C 5 5 1.2 mm 1018 hPa 69% Ciel voilé
17:00 16°C 15 15 3.6 mm 1017 hPa 73% Peu nuageux
20:00 14°C 15 15 2.6 mm 1018 hPa 85% Peu nuageux
23:00 9°C 15 15 0.2 mm 1019 hPa 92% Ciel voilé
SAM.
25
02:00 8°C 10 10 0.1 mm 1019 hPa 95% Ensoleillé / Ciel clair
05:00 7°C 10 10 --- 1018 hPa 95% Ensoleillé / Ciel clair
08:00 9°C 5 5 --- 1019 hPa 90% Ensoleillé / Ciel clair
11:00 14°C 10 10 --- 1018 hPa 76% Peu nuageux
14:00 17°C 5 10 --- 1017 hPa 61% Couvert
17:00 17°C 10 15 0.5 mm 1016 hPa 65% Averses de pluie faible
20:00 15°C 10 10 0.5 mm 1016 hPa 78% Averses de pluie faible
23:00 12°C 15 15 --- 1016 hPa 86% Couvert
DIM.
26
02:00 12°C 15 15 0.3 mm 1015 hPa 92% Averses de pluie faible
05:00 11°C 15 20 0.4 mm 1015 hPa 97% Averses de pluie faible
08:00 11°C 20 20 0.2 mm 1016 hPa 95% Averses de pluie faible
11:00 14°C 25 35 --- 1017 hPa 80% Couvert
14:00 16°C 30 40 0.1 mm 1017 hPa 67% Couvert
17:00 16°C 30 15 0.6 mm 1017 hPa 73% Averses de pluie faible
20:00 14°C 25 15 0.4 mm 1017 hPa 80% Averses de pluie faible
23:00 10°C 15 25 --- 1019 hPa 94% Couvert
LUN.
27
02:00 9°C 15 30 --- 1019 hPa 96% Couvert
05:00 8°C 15 15 --- 1019 hPa 96% Couvert
08:00 9°C 15 25 --- 1019 hPa 92% Couvert
11:00 13°C 20 25 --- 1019 hPa 70% Ensoleillé / Ciel clair
14:00 14°C 25 35 --- 1019 hPa 61% Ciel voilé
17:00 15°C 20 30 0.2 mm 1018 hPa 60% Averses de pluie faible
20:00 12°C 15 15 0.3 mm 1019 hPa 82% Averses de pluie faible
23:00 8°C 15 25 1.3 mm 1020 hPa 94% Peu nuageux
MAR.
28
02:00 6°C 15 15 0.6 mm 1021 hPa 95% Averses de pluie faible
05:00 5°C 15 15 --- 1022 hPa 94% Ensoleillé / Ciel clair
08:00 7°C 10 10 --- 1023 hPa 88% Ensoleillé / Ciel clair
11:00 12°C 20 20 --- 1023 hPa 73% Ensoleillé / Ciel clair
14:00 15°C 15 20 --- 1022 hPa 65% Ciel voilé
17:00 16°C 15 20 0.2 mm 1021 hPa 66% Averses de pluie faible
20:00 13°C 15 15 0.7 mm 1022 hPa 92% Averses de pluie faible
23:00 11°C 10 15 --- 1023 hPa 97% Couvert
MER.
29
02:00 11°C 10 15 --- 1022 hPa 97% Couvert
05:00 9°C 10 10 --- 1022 hPa 96% Peu nuageux
08:00 11°C 5 5 --- 1023 hPa 91% Couvert
11:00 15°C 5 5 --- 1023 hPa 74% Couvert
14:00 18°C 15 15 --- 1022 hPa 66% Couvert
17:00 18°C 15 15 0.2 mm 1021 hPa 69% Averses de pluie faible
20:00 17°C 15 20 0.1 mm 1020 hPa 79% Couvert
23:00 13°C 10 10 --- 1021 hPa 89% Couvert
JEU.
30
02:00 12°C 10 10 --- 1020 hPa 92% Couvert
05:00 12°C 10 10 --- 1018 hPa 92% Couvert
08:00 14°C 15 25 --- 1018 hPa 92% Couvert
11:00 17°C 20 30 --- 1018 hPa 76% Couvert
14:00 18°C 20 25 --- 1017 hPa 71% Couvert
17:00 18°C 20 30 --- 1016 hPa 67% Couvert
20:00 15°C 15 25 --- 1017 hPa 85% Couvert
23:00 13°C 10 15 --- 1017 hPa 91% Couvert
VEN.
31
02:00 12°C 15 15 --- 1017 hPa 92% Couvert
05:00 8°C 15 20 --- 1018 hPa 91% Ciel voilé
08:00 10°C 15 25 --- 1018 hPa 89% Ensoleillé / Ciel clair
11:00 15°C 20 25 --- 1019 hPa 76% Ensoleillé / Ciel clair
14:00 18°C 20 20 --- 1019 hPa 60% Ensoleillé / Ciel clair
17:00 17°C 20 30 0.2 mm 1019 hPa 73% Couvert
20:00 16°C 20 30 0.1 mm 1019 hPa 80% Peu nuageux
23:00 11°C 15 25 --- 1020 hPa 92% Peu nuageux
SAM.
01
02:00 10°C 15 25 --- 1020 hPa 95% Couvert
05:00 9°C 15 25 --- 1020 hPa 97% Couvert
08:00 10°C 15 25 --- 1020 hPa 90% Couvert
11:00 15°C 15 15 --- 1020 hPa 74% Ensoleillé / Ciel clair
14:00 17°C 20 20 --- 1020 hPa 64% Ciel voilé
17:00 17°C 35 30 --- 1020 hPa 69% Ciel voilé
20:00 14°C 25 20 --- 1021 hPa 83% Peu nuageux
23:00 10°C 20 30 --- 1023 hPa 83% Couvert
DIM.
02
02:00 7°C 15 25 --- 1023 hPa 96% Couvert
05:00 5°C 15 15 --- 1023 hPa 95% Ensoleillé / Ciel clair
08:00 8°C 15 25 --- 1024 hPa 88% Ensoleillé / Ciel clair
11:00 13°C 20 25 --- 1024 hPa 76% Couvert
14:00 15°C 20 25 0.2 mm 1023 hPa 72% Averses de pluie faible
17:00 16°C 15 25 0.4 mm 1023 hPa 71% Averses de pluie faible
20:00 15°C 20 30 0.3 mm 1022 hPa 78% Peu nuageux
23:00 10°C 15 25 --- 1023 hPa 93% Peu nuageux
LUN.
03
02:00 9°C 10 10 --- 1022 hPa 94% Ciel voilé